Temperature
30 31 31 31 31 31 31 31 31 31 31 31 31 31 31 30 29 28 27 26 26 25 24 23 22 22 21 21 21 20 20 20 20 19 19 19 19 19 19 18 18 18 18 18
30 31 31 32 31 31 31 31 31 31 31 31 31 31 31 30 29 29 28 27 26 25 24 23 22 22 21 21 21 21 20 20 20 20 19 19 19 19 19 18 18 18 18 18
31 31 31 31 31 31 31 31 31 31 31 31 31 31 31 31 29 28 28 27 27 26 25 24 23 22 21 21 21 20 20 20 20 19 19 19 19 19 19 18 18 18 18 18
31 31 31 31 31 31 31 31 31 30 30 31 31 31 31 31 30 29 28 28 27 26 25 24 23 22 22 21 21 21 21 20 20 19 19 19 19 19 19 18 18 18 18 18
31 31 30 30 31 31 31 31 31 31 31 31 31 31 32 31 30 30 29 28 28 27 25 24 23 22 22 21 21 21 21 20 20 19 19 19 19 19 19 18 18 18 18 18
31 31 31 31 31 31 31 31 30 31 31 30 31 31 31 32 31 31 30 28 27 26 25 24 23 22 22 21 21 20 21 20 20 20 19 19 19 19 19 18 18 18 18 18
30 30 31 31 31 31 31 30 30 29 30 30 31 30 31 32 31 31 30 28 27 26 25 24 23 22 22 21 21 21 21 20 20 19 19 19 19 19 18 18 18 18 18 18
30 30 30 30 30 30 30 31 30 29 29 31 30 30 31 31 30 29 29 28 27 26 26 25 23 23 22 21 21 21 21 20 20 19 19 19 19 19 18 18 18 18 18 18
30 30 31 30 31 31 30 31 32 31 30 30 31 31 31 31 30 29 29 27 27 26 25 24 23 23 22 21 21 21 20 20 20 19 19 19 19 19 18 18 18 18 18 17
31 29 30 30 30 30 31 31 31 30 29 29 30 30 31 30 30 29 29 27 26 25 25 24 24 23 22 21 21 20 20 20 19 19 19 19 19 19 19 18 18 18 17 17
31 29 30 30 29 30 30 30 30 30 30 29 29 30 31 30 30 29 28 27 26 25 25 24 23 23 22 21 21 20 20 20 19 19 19 19 19 19 18 18 18 18 17 17
30 30 29 30 30 30 30 30 30 29 29 29 29 30 30 30 30 29 28 26 25 25 24 24 23 22 22 21 21 20 20 20 19 19 19 19 18 18 18 18 18 18 17 17
29 29 28 29 29 29 29 30 30 30 30 29 29 30 30 29 29 28 27 26 25 24 24 23 22 22 21 21 20 20 20 20 19 19 19 19 18 18 18 18 18 17 17 17
28 29 29 29 29 30 29 29 29 30 30 29 30 30 30 29 28 28 26 25 24 23 23 23 22 21 21 20 20 20 20 19 19 19 18 18 18 18 18 18 17 17 17 17
29 29 29 29 30 30 30 29 29 29 29 29 30 30 30 29 28 27 26 25 24 23 23 22 22 21 20 20 19 19 19 19 19 19 18 18 18 18 18 17 17 17 17 16
28 28 28 28 29 29 29 29 29 29 29 29 30 29 29 28 26 26 25 24 24 23 22 22 21 20 20 19 19 19 19 19 19 18 18 18 17 17 17 17 17 17 16 16
28 27 27 28 29 28 28 29 29 29 29 29 29 29 28 27 26 25 25 24 24 23 22 21 21 20 20 19 19 19 19 19 18 18 18 17 17 17 17 17 16 16 16 16
26 26 27 28 27 26 28 28 28 28 28 28 28 28 27 26 25 24 24 24 23 22 22 21 21 20 19 19 19 19 19 18 18 18 17 17 17 17 17 16 16 16 16 15
27 26 26 27 27 27 27 27 28 27 27 27 27 26 26 25 24 24 23 22 22 21 21 20 20 20 19 19 18 18 18 18 18 17 17 17 17 17 16 16 16 16 15 15
26 25 26 26 26 26 27 27 26 27 26 26 26 25 25 25 26 25 21 21 21 20 20 19 19 19 19 18 18 18 18 18 17 17 17 17 16 16 16 16 16 16 15 15
25 25 25 26 26 27 26 25 26 26 25 24 24 24 24 24 24 22 20 20 20 19 19 19 19 18 18 18 17 17 17 17 17 17 16 16 16 16 16 16 16 15 15 15
25 25 25 25 25 26 25 25 25 24 23 23 23 23 23 22 21 20 20 19 19 19 18 18 18 18 17 17 17 17 17 17 16 16 16 16 16 16 16 15 15 15 15 14
24 25 25 25 25 23 22 23 22 22 22 22 22 22 21 21 20 20 19 19 18 18 17 17 17 17 17 17 16 16 16 16 16 16 16 16 15 15 15 15 15 14 14 14
23 22 23 23 23 22 22 21 21 21 21 21 21 21 20 20 20 19 19 18 18 17 17 17 16 16 16 16 16 16 16 16 15 15 15 15 15 15 15 14 14 14 14 14
22 22 22 22 22 21 21 20 20 20 20 20 20 20 20 19 19 18 18 17 17 17 16 16 16 15 15 15 15 15 15 15 15 15 14 14 14 14 14 14 14 14 14 14
22 22 22 22 21 21 20 19 19 19 19 19 19 19 19 19 18 18 17 16 16 16 16 15 15 15 15 15 14 14 15 14 14 14 14 14 14 14 14 14 14 14 13 13
Wind_Speed
7 9 8 6 5 5 5 5 3 1 0 3 3 2 2 6 8 8 9 8 8 8 8 9 9 9 9 8 8 8 7 7 6 5 5 4 3 2 2 1 1 1 1 2
9 10 7 5 6 7 6 6 4 1 1 3 4 4 2 5 8 8 9 9 9 9 9 9 9 9 9 9 9 8 8 7 6 5 4 3 2 2 2 1 1 1 2 2
12 5 4 7 7 7 7 6 5 4 3 5 5 4 4 5 7 8 8 9 9 10 10 11 10 10 10 10 9 8 8 7 6 6 5 4 3 3 3 3 2 2 2 2
11 7 7 8 8 8 6 4 5 5 6 4 4 4 4 5 7 8 9 9 9 10 10 11 11 11 10 10 9 9 8 7 6 6 5 5 4 4 3 2 2 3 2 2
8 7 8 9 7 7 5 4 5 6 8 8 6 6 2 5 6 6 8 9 9 9 10 10 10 10 9 9 9 9 8 8 7 6 5 5 5 4 3 3 3 3 3 3
8 7 7 7 6 6 5 5 5 7 8 8 5 6 3 3 3 4 6 7 8 8 9 10 10 10 9 9 8 9 9 8 7 7 6 6 5 4 4 4 4 4 3 3
10 9 8 7 8 8 8 8 6 6 7 5 3 5 3 1 0 2 4 6 7 8 9 10 10 10 9 9 9 9 9 8 8 8 7 6 6 5 5 5 4 4 3 2
11 10 9 8 9 7 9 10 7 6 6 4 4 5 1 2 1 1 3 5 6 7 8 9 10 10 9 9 8 8 9 8 8 8 7 6 6 5 3 3 3 3 3 2
9 8 7 7 8 9 8 9 9 8 8 7 4 3 2 3 3 3 4 5 6 6 8 9 10 10 9 9 9 8 8 8 8 8 7 6 6 4 3 3 3 3 2 2
6 7 7 7 8 8 8 7 7 8 6 7 5 5 3 2 3 3 4 4 5 6 7 8 9 9 8 8 8 8 8 7 7 7 6 6 6 5 4 4 2 2 2 2
9 8 8 9 9 9 8 8 8 7 7 7 6 3 2 1 2 3 4 4 5 6 7 8 8 8 8 8 8 8 8 7 7 6 6 5 5 5 5 4 4 3 3 4
10 8 8 9 7 6 9 10 10 9 7 7 8 3 5 2 2 2 3 4 4 5 7 8 8 8 8 8 8 8 8 7 6 6 6 5 5 5 5 5 4 4 3 3
9 8 9 10 10 8 9 10 10 10 8 8 9 4 6 4 2 2 2 4 4 5 6 7 7 7 7 7 8 8 8 7 6 6 6 5 5 5 4 4 4 4 4 3
6 10 11 11 7 9 10 10 11 12 10 9 10 7 2 1 1 2 3 4 5 5 6 6 7 7 7 7 7 7 7 6 6 6 5 5 5 4 4 4 4 4 4 4
7 11 11 10 7 7 10 11 12 13 12 11 9 8 4 1 0 2 4 5 5 5 6 6 6 6 6 6 6 6 6 6 5 5 5 5 5 5 5 4 4 4 4 4
7 9 10 11 10 9 10 11 12 12 12 11 9 6 1 1 2 3 4 4 4 4 5 5 5 6 6 6 6 6 5 5 5 5 5 4 4 4 5 5 5 4 4 3
6 7 9 10 9 10 12 10 10 10 8 9 9 4 2 2 2 2 3 3 3 3 4 4 4 4 5 5 6 6 5 5 5 5 4 4 4 4 4 5 4 4 4 4
7 8 7 9 8 12 5 3 6 7 5 5 4 2 2 2 2 2 2 2 2 2 2 2 3 3 4 4 4 4 5 5 4 4 4 4 4 4 4 4 4 4 4 4
9 8 7 8 11 9 7 5 6 6 4 3 3 3 2 3 3 3 3 2 2 2 2 2 2 2 3 3 4 4 4 5 5 4 4 4 4 4 4 5 5 4 4 4
8 9 9 9 11 11 5 4 3 5 6 2 3 3 3 4 4 2 2 2 2 2 2 2 2 2 3 2 3 3 4 4 4 5 5 4 4 5 5 5 5 4 4 4
10 9 12 12 11 7 1 2 5 8 3 3 2 2 2 2 1 2 3 2 2 3 3 2 2 2 2 2 2 3 3 4 4 4 4 4 4 5 5 5 4 4 4 4
8 8 9 10 11 7 2 3 4 1 2 2 2 1 1 1 2 3 3 3 2 2 2 2 2 1 2 2 3 3 3 3 3 4 4 4 4 5 4 4 4 4 4 5
6 4 4 5 3 3 2 1 1 0 2 2 2 1 2 2 2 3 3 2 2 2 1 1 1 1 1 1 2 3 2 2 3 4 4 4 4 4 4 4 5 5 5 5
4 2 3 3 2 1 1 1 1 1 0 1 1 1 2 2 2 2 2 1 1 1 1 0 1 1 1 1 2 3 2 2 3 4 4 4 4 4 4 4 4 4 4 5
2 3 4 4 2 1 1 1 1 1 1 1 1 1 1 1 1 1 1 1 1 0 0 0 1 1 1 1 1 1 2 2 3 3 3 4 4 3 3 3 3 4 3 3
4 4 5 4 2 2 1 1 2 1 1 1 0 1 1 1 1 0 0 1 0 0 0 1 0 0 0 1 1 1 2 2 3 3 3 3 3 3 3 3 3 1 3 2
Wind_Direction
208 225 227 228 242 274 281 270 274 321 329 275 269 273 204 186 196 193 190 187 185 182 175 173 173 171 168 169 169 168 168 167 172 172 179 175 174 174 173 180 163 192 194 194
214 228 238 244 237 239 251 258 262 229 249 278 288 282 213 192 202 202 198 194 190 182 175 175 178 177 176 174 175 174 175 175 181 170 171 173 176 185 185 186 151 207 203 211
227 228 220 231 226 236 245 260 280 287 275 239 267 244 189 189 200 201 202 197 191 186 181 176 180 181 179 178 180 179 178 179 180 175 173 166 169 188 187 189 186 192 193 195
231 230 229 230 229 241 242 258 267 260 260 260 254 274 182 180 190 197 202 197 192 185 182 177 178 180 181 180 180 179 178 178 177 180 184 190 195 200 198 204 188 181 181 194
217 221 224 232 235 246 256 250 254 262 263 267 245 268 191 173 199 197 198 196 192 184 180 175 175 176 177 177 177 175 174 177 180 187 181 197 206 206 201 199 182 198 185 196
226 215 230 242 237 231 221 223 225 244 254 254 248 259 255 191 207 194 182 186 190 184 178 174 172 170 173 173 174 171 172 178 183 190 192 199 201 209 211 209 200 206 202 204
213 209 210 226 225 206 221 237 239 238 238 245 205 248 265 40 145 218 183 175 179 181 181 175 172 172 174 174 174 171 172 178 184 191 197 199 204 207 210 221 210 224 222 209
211 210 203 211 229 230 226 240 247 260 269 258 200 244 253 82 123 165 166 160 167 175 177 174 173 174 176 176 174 173 174 178 183 189 193 198 205 214 210 218 229 224 230 229
220 215 190 205 223 233 226 235 253 264 270 272 244 237 232 174 182 174 165 159 165 171 172 171 172 173 171 173 173 172 171 175 182 186 186 192 201 213 213 214 224 223 222 206
229 227 201 193 208 217 244 236 239 250 259 266 250 239 240 210 203 176 170 165 167 171 173 171 170 170 169 170 167 167 169 175 182 185 191 186 190 193 200 213 203 211 213 209
231 229 207 199 214 216 211 218 230 245 257 268 270 258 81 157 185 185 175 167 167 172 172 170 169 167 166 163 163 168 168 173 179 184 187 188 189 188 189 192 198 200 209 199
219 235 230 215 206 237 228 227 225 236 241 254 274 266 102 110 131 162 155 146 157 165 166 165 163 160 163 164 165 167 170 174 177 176 177 182 185 185 190 192 196 198 200 206
206 229 227 214 199 206 227 229 233 245 247 248 257 238 119 118 126 141 144 141 144 149 152 157 159 161 166 168 168 169 173 172 171 172 174 180 182 181 187 191 194 201 205 211
228 233 238 242 234 212 217 224 228 239 246 249 252 257 189 169 188 154 151 148 141 141 147 154 158 161 166 168 170 172 173 170 172 171 176 179 187 187 189 195 198 202 207 214
224 237 238 250 248 232 228 226 225 234 248 258 257 257 260 265 237 149 153 151 143 145 152 157 162 160 166 168 172 175 177 174 173 176 187 184 191 194 196 197 203 209 217 221
227 243 237 238 239 236 237 234 229 233 241 249 257 254 249 107 130 153 157 155 157 158 159 160 164 165 169 171 172 173 179 176 176 182 190 192 196 199 201 204 209 212 216 224
224 229 237 238 230 236 235 229 229 230 240 250 252 242 170 164 146 154 154 158 159 157 157 159 166 176 177 177 174 175 179 178 178 180 184 187 195 203 208 210 209 212 217 221
228 235 238 242 226 237 233 199 226 228 232 242 248 226 199 188 139 137 139 141 136 136 139 152 165 167 171 174 172 176 179 182 182 185 193 200 206 209 209 211 213 218 223 225
225 223 239 240 235 236 217 205 217 221 221 236 222 199 183 154 157 137 82 78 91 101 111 138 160 153 152 167 168 173 185 185 189 193 202 208 214 215 212 214 218 223 226 233
207 216 233 236 246 244 213 168 217 232 221 182 182 178 178 184 213 126 72 66 82 88 100 112 125 130 143 156 168 185 194 195 202 207 212 217 221 224 225 224 223 225 229 236
198 209 227 234 241 241 157 204 207 228 206 132 156 171 191 195 333 96 104 86 87 94 102 113 126 137 137 153 175 204 213 218 218 216 218 221 224 227 227 225 224 226 234 242
218 217 221 231 237 228 107 187 217 172 117 168 167 183 177 128 97 112 117 106 95 102 104 107 117 122 142 171 192 218 231 236 228 227 226 224 227 233 227 225 229 228 234 237
231 253 246 242 238 78 82 109 39 123 161 172 182 175 141 131 124 127 128 117 88 78 76 95 130 147 167 216 222 235 244 238 233 234 235 236 237 236 231 227 231 232 231 242
197 237 229 224 193 118 58 32 315 295 119 133 142 142 142 137 131 133 125 119 90 55 22 82 129 162 228 248 252 253 257 243 240 237 239 241 243 244 237 239 238 240 243 246
219 211 220 219 203 191 123 356 346 14 73 119 143 148 149 138 134 124 136 128 109 76 16 177 188 214 245 231 240 263 256 240 240 241 244 248 250 249 247 246 254 250 257 268
215 223 229 234 203 253 240 307 322 352 8 13 112 124 119 119 111 77 43 31 325 39 115 154 168 161 351 313 310 300 272 244 244 248 255 259 255 246 250 252 258 255 238 213
Height
1495 1493 1490 1487 1487 1489 1489 1490 1490 1488 1486 1487 1487 1487 1488 1492 1495 1497 1500 1503 1505 1508 1511 1513 1515 1517 1519 1520 1522 1523 1525 1526 1527 1529 1530 1531 1532 1533 1533 1534 1533 1533 1534 1534
1492 1490 1485 1485 1487 1489 1489 1491 1489 1487 1486 1487 1486 1485 1484 1488 1491 1494 1497 1500 1502 1505 1509 1511 1514 1516 1517 1519 1520 1522 1523 1525 1527 1528 1529 1530 1531 1532 1533 1533 1533 1533 1533 1533
1488 1484 1485 1487 1488 1489 1488 1489 1489 1490 1487 1485 1486 1486 1483 1484 1489 1492 1494 1497 1499 1502 1505 1509 1511 1513 1515 1517 1519 1521 1522 1524 1525 1527 1529 1529 1530 1531 1532 1532 1532 1532 1532 1532
1483 1483 1486 1486 1486 1486 1489 1484 1487 1489 1491 1488 1487 1494 1483 1481 1485 1488 1491 1494 1496 1500 1503 1506 1509 1511 1513 1515 1517 1519 1521 1522 1524 1525 1527 1529 1529 1531 1531 1531 1531 1531 1531 1531
1482 1482 1485 1486 1484 1484 1485 1484 1485 1486 1488 1489 1484 1490 1482 1478 1482 1483 1486 1490 1493 1497 1501 1504 1506 1509 1511 1513 1515 1517 1518 1520 1522 1524 1525 1527 1528 1529 1530 1530 1530 1530 1530 1530
1479 1481 1482 1482 1482 1483 1484 1485 1485 1485 1484 1497 1487 1490 1488 1474 1477 1479 1483 1487 1491 1495 1498 1502 1504 1507 1509 1511 1513 1515 1516 1518 1520 1522 1524 1525 1526 1527 1528 1529 1529 1530 1530 1529
1482 1479 1480 1481 1482 1482 1483 1488 1496 1500 1498 1494 1481 1487 1483 1472 1475 1478 1481 1485 1489 1492 1495 1499 1502 1504 1507 1509 1511 1513 1514 1516 1518 1520 1522 1523 1524 1525 1526 1527 1528 1528 1529 1529
1484 1484 1477 1478 1480 1481 1481 1482 1497 1507 1502 1488 1484 1486 1475 1472 1476 1479 1481 1484 1487 1490 1493 1496 1499 1502 1504 1507 1509 1510 1512 1514 1516 1518 1519 1520 1522 1524 1525 1525 1526 1526 1527 1527
1476 1480 1473 1475 1476 1477 1480 1479 1473 1482 1486 1490 1483 1478 1473 1472 1475 1478 1480 1483 1486 1488 1491 1494 1497 1500 1502 1505 1506 1508 1510 1512 1514 1516 1517 1518 1519 1521 1522 1523 1523 1524 1524 1525
1469 1480 1473 1475 1476 1477 1475 1474 1479 1484 1500 1501 1488 1482 1477 1474 1474 1476 1479 1482 1485 1487 1490 1493 1496 1498 1501 1503 1505 1507 1509 1510 1512 1514 1515 1516 1516 1518 1519 1520 1521 1521 1522 1522
1468 1477 1475 1474 1477 1476 1478 1479 1479 1480 1482 1494 1496 1484 1467 1471 1472 1475 1478 1481 1484 1486 1488 1492 1495 1497 1500 1502 1504 1505 1507 1509 1511 1512 1513 1514 1515 1515 1516 1517 1518 1519 1519 1520
1469 1470 1475 1472 1469 1470 1471 1472 1475 1485 1488 1485 1487 1481 1467 1470 1472 1475 1477 1481 1483 1485 1488 1491 1493 1496 1499 1501 1502 1504 1505 1507 1509 1510 1511 1512 1513 1514 1515 1515 1516 1517 1517 1518
1468 1472 1482 1479 1476 1474 1472 1470 1470 1470 1475 1481 1486 1479 1467 1471 1473 1476 1478 1481 1483 1485 1488 1490 1493 1495 1497 1500 1501 1503 1504 1506 1507 1508 1509 1510 1511 1512 1513 1513 1514 1515 1515 1515
1469 1467 1474 1479 1471 1465 1471 1470 1470 1472 1475 1477 1476 1471 1467 1470 1472 1475 1479 1481 1483 1486 1488 1490 1492 1494 1496 1498 1500 1501 1503 1504 1506 1506 1507 1508 1509 1510 1511 1511 1512 1512 1513 1513
1467 1467 1465 1463 1459 1461 1465 1466 1468 1470 1468 1471 1469 1467 1466 1468 1472 1476 1479 1481 1483 1485 1487 1489 1491 1493 1495 1496 1498 1499 1501 1502 1503 1504 1505 1506 1507 1508 1508 1509 1510 1510 1510 1511
1466 1466 1465 1466 1461 1461 1464 1463 1464 1465 1464 1465 1465 1467 1466 1470 1474 1477 1479 1481 1483 1485 1487 1489 1490 1492 1493 1494 1496 1497 1499 1500 1501 1501 1503 1504 1505 1505 1506 1507 1507 1508 1508 1508
1464 1467 1470 1467 1462 1464 1470 1462 1462 1463 1462 1463 1465 1465 1467 1471 1474 1477 1479 1481 1482 1484 1486 1487 1489 1490 1491 1492 1493 1495 1496 1498 1498 1499 1500 1501 1502 1503 1503 1504 1505 1505 1505 1505
1467 1468 1466 1465 1470 1483 1463 1458 1459 1461 1462 1462 1464 1466 1469 1472 1475 1478 1479 1480 1482 1484 1485 1486 1488 1489 1490 1491 1492 1493 1494 1495 1496 1497 1498 1499 1500 1500 1501 1501 1501 1502 1502 1502
1463 1467 1467 1466 1469 1467 1462 1459 1460 1462 1465 1465 1465 1467 1470 1472 1475 1477 1480 1481 1483 1484 1485 1486 1487 1488 1489 1490 1490 1490 1491 1492 1493 1494 1495 1496 1497 1497 1497 1498 1498 1498 1499 1499
1463 1465 1466 1467 1473 1473 1459 1458 1462 1464 1467 1466 1467 1469 1470 1471 1470 1475 1480 1481 1482 1483 1484 1485 1486 1486 1487 1488 1489 1489 1489 1490 1490 1491 1492 1493 1493 1494 1494 1494 1495 1495 1496 1496
1463 1465 1465 1465 1467 1459 1458 1460 1463 1470 1468 1467 1468 1470 1471 1472 1473 1477 1479 1480 1481 1482 1483 1484 1485 1485 1486 1486 1486 1487 1487 1488 1488 1489 1489 1489 1490 1490 1490 1491 1491 1491 1492 1492
1458 1459 1463 1462 1466 1464 1460 1460 1462 1465 1467 1467 1469 1470 1472 1474 1475 1477 1478 1479 1480 1481 1482 1483 1483 1483 1483 1484 1484 1485 1485 1485 1485 1486 1486 1486 1486 1487 1487 1487 1487 1487 1488 1488
1457 1457 1455 1457 1461 1463 1464 1464 1466 1467 1467 1468 1469 1470 1472 1473 1475 1476 1477 1479 1480 1480 1481 1481 1481 1481 1482 1482 1482 1483 1483 1483 1483 1483 1483 1483 1483 1483 1483 1483 1484 1484 1484 1485
1459 1462 1460 1461 1460 1463 1465 1466 1468 1468 1468 1468 1469 1470 1472 1473 1474 1476 1476 1477 1478 1479 1480 1479 1479 1480 1480 1480 1480 1480 1480 1480 1480 1480 1480 1481 1481 1480 1480 1480 1481 1481 1481 1481
1459 1461 1460 1461 1463 1465 1466 1468 1468 1469 1468 1469 1469 1470 1471 1472 1474 1475 1475 1476 1477 1477 1477 1477 1477 1478 1478 1477 1477 1477 1477 1477 1477 1477 1478 1478 1478 1477 1476 1477 1477 1477 1477 1477
1460 1461 1461 1459 1464 1465 1467 1468 1469 1468 1468 1469 1469 1470 1471 1472 1473 1473 1474 1475 1475 1475 1475 1475 1476 1476 1476 1475 1475 1475 1475 1475 1475 1475 1475 1475 1475 1474 1474 1474 1473 1472 1473 1472